map of CPE home
CPE - Airport
Location
City:  Campeche, Campeche, México
Name:Ingeniero Alberto Acuña Ongay International Airport
ICAO:MMCP
IATA:CPE

Details
Type:Airport (Aerodrome, Airfield)
Use:International (customs port of entry)
Latitude:19°49'00"N (19.816794)
Longitude:90°30'01"W (-90.500313)
Datum:WGS 1984
Elevation:34 ft (10 m)
Variation:0.27°E (WMM2015v2 magnetic declination)
-0.11° annual change
Runways:1
Longest:8202 × 148 ft (2500 × 45 m), paved

Time
Time Zone:UTC-6 (DST-5)
Local Time:

Weather
METAR:MMCP 041340Z 15010KT 7SM SKC 22/21 A2995 RMK HZY
TAF:MMCP 031705Z 0318/0418 14015KT P6SM BKN030 BKN090
FM040400 00000KT P6SM OVC020
FM041500 17010KT P6SM OVC015

Related Locations
Nearby:
Farthest:CCK: 11723 mi / 18866 km
West Island (Pulau Panjang) [Cocos (Keeling) Islands], CC

Find:

   beyond  
but within

Other Information
Maps:
NOTAMs:
Links:
Sources:

  
  • flag of México
  • flag of Campeche
  

Sectional Chart

Flight Planning
at skyvector.com

Satellite Image

Google Maps Satellite view

 

Copyright © 2004-2019 Karl L. Swartz. All rights reserved.
The Great Circle Mapper name and logo are trademarks of the Great Circle Mapper.
All other trademarks mentioned herein belong to their respective owners.
Please see credits for attibutions and further copyright information.

  Follow gcmap on Facebook Follow gcmap on Twitter GCmap on LinkedIn

hCard Microformat

Geo Microformat